TimeCDT,TemperatureF,Dew PointF,Humidity,Sea Level PressureIn,VisibilityMPH,Wind Direction,Wind SpeedMPH,Gust SpeedMPH,PrecipitationIn,Events,Conditions,WindDirDegrees,DateUTC
12:53 AM,39.9,28.9,65,30.15,10.0,Calm,Calm,-,N/A,,Clear,0,2012-10-30 05:53:00
1:53 AM,39.0,28.0,65,30.14,10.0,Calm,Calm,-,N/A,,Clear,0,2012-10-30 06:53:00
2:53 AM,39.0,28.0,65,30.13,10.0,East,3.5,-,N/A,,Clear,90,2012-10-30 07:53:00
3:53 AM,37.0,28.0,70,30.12,10.0,ESE,5.8,-,N/A,,Clear,110,2012-10-30 08:53:00
4:53 AM,35.1,27.0,72,30.10,10.0,Calm,Calm,-,N/A,,Clear,0,2012-10-30 09:53:00
5:53 AM,35.1,27.0,72,30.11,10.0,East,3.5,-,N/A,,Clear,100,2012-10-30 10:53:00
6:53 AM,36.0,28.0,73,30.09,10.0,East,4.6,-,N/A,,Scattered Clouds,100,2012-10-30 11:53:00
7:53 AM,37.0,27.0,67,30.10,10.0,Calm,Calm,-,N/A,,Partly Cloudy,0,2012-10-30 12:53:00
8:53 AM,39.0,28.9,67,30.09,10.0,ESE,5.8,-,N/A,,Partly Cloudy,110,2012-10-30 13:53:00
9:53 AM,42.1,28.9,60,30.09,10.0,ESE,5.8,-,N/A,,Mostly Cloudy,120,2012-10-30 14:53:00
10:53 AM,46.0,27.0,47,30.09,10.0,ESE,8.1,-,N/A,,Mostly Cloudy,120,2012-10-30 15:53:00
11:53 AM,51.1,26.1,38,30.09,10.0,ESE,9.2,-,N/A,,Partly Cloudy,110,2012-10-30 16:53:00
12:53 PM,53.1,25.0,34,30.06,10.0,ESE,11.5,-,N/A,,Mostly Cloudy,120,2012-10-30 17:53:00
1:53 PM,52.0,23.0,32,30.06,10.0,ENE,9.2,-,N/A,,Mostly Cloudy,70,2012-10-30 18:53:00
2:53 PM,53.1,24.1,32,30.04,10.0,ESE,5.8,-,N/A,,Mostly Cloudy,110,2012-10-30 19:53:00
3:53 PM,55.0,26.1,33,30.02,10.0,East,5.8,-,N/A,,Clear,80,2012-10-30 20:53:00
4:53 PM,54.0,24.1,31,30.02,10.0,East,5.8,-,N/A,,Mostly Cloudy,80,2012-10-30 21:53:00
5:53 PM,53.1,25.0,34,30.02,10.0,Calm,Calm,-,N/A,,Mostly Cloudy,0,2012-10-30 22:53:00
7:53 PM,39.0,26.1,60,30.04,10.0,NNE,5.8,-,N/A,,Scattered Clouds,20,2012-10-31 00:53:00
8:53 PM,44.1,28.9,55,30.04,10.0,Calm,Calm,-,N/A,,Overcast,0,2012-10-31 01:53:00
9:53 PM,46.0,26.1,46,30.05,10.0,North,6.9,-,N/A,,Overcast,350,2012-10-31 02:53:00
10:53 PM,41.0,27.0,57,30.05,10.0,NNW,3.5,-,N/A,,Overcast,340,2012-10-31 03:53:00
11:53 PM,39.9,26.1,58,30.05,10.0,Calm,Calm,-,N/A,,Partly Cloudy,0,2012-10-31 04:53:00